Regional Weather Roundup
Issued by NWS

Home | Current Version | Previous Version | Graphics & Text | Print | Product List | Glossary On
Versions: 1 2 3 4 5 6 7 8 9 10 11 12 13 14 15 16 17 18 19 20 21 22 23 24 25 26 27 28 29 30 31 32 33 34 35 36 37 38 39 40 41 42 43 44 45 46 47 48 49 50
406
ASUS43 KFSD 232210
RWRSD

WEATHER ROUNDUP FOR SOUTH DAKOTA
NATIONAL WEATHER SERVICE SIOUX FALLS SD
500 PM CDT MON OCT 23 2017

NOTE: "FAIR" INDICATES FEW OR NO CLOUDS BELOW 12,000 FEET WITH NO
SIGNIFICANT WEATHER AND/OR OBSTRUCTIONS TO VISIBILITY.


SDZ001>005-009-010-012>017-232300-
NORTHWEST AND NORTH CENTRAL SOUTH DAKOTA

CITY           SKY/WX    TMP DP  RH WIND       PRES   REMARKS
BUFFALO          N/A     57  20  23 NW40G49   30.23R
FAITH            N/A     54  22  28 NW30G44   30.23R
$$

SDZ012>016-024>037-041>051-057-063-072>074-232300-
SOUTHWEST AND SOUTH CENTRAL SOUTH DAKOTA

CITY           SKY/WX    TMP DP  RH WIND       PRES   REMARKS
RAPID CTY ARPT PTSUNNY   55  16  21 NW29G43   30.33R
PIERRE         PTSUNNY   57  32  38 N21G35    30.16R
CUSTER         PTSUNNY   46  13  26 NW16G33   30.36R
ELLSWORTH AFB  CLOUDY    57  15  19 NW37G44   30.31R
PHILIP         CLOUDY    60  23  24 N39G48    30.25R
SPEARFISH      FAIR      54  18  24 NW22G40   30.36S
WINNER         CLOUDY    55  35  47 NW22G32   30.19R
$$

SDZ004>011-016>023-039-040-232300-
NORTHEAST SOUTH DAKOTA

CITY           SKY/WX    TMP DP  RH WIND       PRES   REMARKS
ABERDEEN       CLOUDY    55  33  43 NW22G35   30.06R
WATERTOWN      PTSUNNY   52  34  50 NW21G28   30.01R
BROOKINGS      CLOUDY    52  29  41 NW21G32   30.01R
SISSETON         N/A     56  31  38 NW25G37   29.97R
$$

SDZ017-020-022-023-036>040-048>070-232300-
SOUTHEAST SOUTH DAKOTA

CITY           SKY/WX    TMP DP  RH WIND       PRES   REMARKS
SIOUX FALLS    PTSUNNY   55  28  35 NW24G43   30.02S
HURON          CLOUDY    55  32  41 NW23G31   30.07R
CHAMBERLAIN    CLOUDY    59  31  34 NW30G38   30.14S
MITCHELL       PTSUNNY   56  32  40 NW24G32   30.09S
YANKTON        PTSUNNY   54  32  43 NW18G29   30.09R
$$

ABBREVIATIONS USED IN REMARKS
   TC - TEMPERATURE IN CELSIUS
  WCI - WIND CHILL INDEX
   HX - HEAT INDEX
  VSB - VISIBILITY





USA.gov is the U.S. government's official web portal to all federal, state and local government web resources and services.